Temp
12 12 12 13 12 12 11 12 12 14 12 13 13 11 11 11 10 11 11 10 9 8 9 9 9 8 8 8 7 6 5 5 4 3 2 2 2 2 3 3 1 1 1 1
10 10 10 10 11 11 11 11 11 12 11 12 12 11 10 11 11 10 9 8 8 8 8 8 8 7 7 6 6 5 4 4 4 3 3 2 2 2 2 2 2 1 1 0
9 9 8 9 12 12 12 12 12 12 13 12 12 10 11 11 9 9 8 8 8 8 9 8 7 6 6 5 5 4 3 2 3 3 3 3 3 3 2 1 1 0 -0 -1
7 10 9 14 13 13 12 12 12 11 11 11 11 10 9 9 8 7 6 7 8 8 7 6 6 5 4 4 3 2 2 2 2 3 2 2 1 1 0 0 -0 -1 -2 -2
10 11 10 13 14 14 13 11 13 12 12 11 11 9 9 7 7 7 6 6 7 6 6 5 5 4 4 4 3 3 3 3 2 2 1 1 0 -0 -1 -1 -2 -2 -3 -4
8 9 10 11 13 13 12 10 12 12 12 11 9 9 10 7 6 7 8 7 6 6 5 5 5 4 4 3 3 2 2 1 1 1 0 -1 -1 -2 -2 -3 -3 -4 -4 -4
8 9 9 10 11 12 11 12 12 12 10 9 8 7 6 6 7 8 8 7 6 5 4 4 5 5 4 3 2 2 2 1 0 -0 -1 -2 -2 -2 -3 -3 -4 -4 -4 -5
6 8 9 11 11 12 12 11 10 9 8 8 7 6 6 6 7 7 6 6 6 4 4 4 4 3 2 1 2 2 0 0 -0 -1 -2 -2 -3 -3 -3 -4 -4 -5 -5 -5
10 9 10 11 12 11 10 9 8 8 7 6 5 5 6 5 6 7 6 6 5 3 3 4 3 3 1 3 1 0 0 0 -1 -1 -2 -3 -3 -3 -4 -4 -5 -5 -6 -7
10 11 10 11 12 11 9 8 7 6 5 6 6 6 5 5 6 5 6 5 4 3 3 3 4 3 3 2 1 1 0 -0 -1 -2 -2 -3 -3 -4 -4 -5 -5 -6 -7 -7
9 11 10 10 9 8 6 6 6 5 6 6 6 5 5 5 4 5 4 4 4 3 3 3 3 3 3 2 1 0 -0 -1 -2 -2 -3 -3 -4 -4 -5 -5 -5 -6 -7 -7
11 12 11 10 7 7 6 6 6 6 6 6 6 4 4 3 4 4 4 4 3 3 2 3 3 3 2 1 1 -0 -1 -1 -2 -2 -3 -4 -5 -5 -5 -5 -6 -6 -7 -7
11 11 10 7 6 6 6 6 7 6 6 5 5 5 4 3 3 3 3 2 2 2 1 1 1 1 0 0 0 -0 -1 -2 -3 -3 -4 -4 -5 -5 -7 -6 -6 -7 -7 -8
10 10 8 7 6 7 7 6 6 6 6 5 4 4 3 2 2 1 1 1 1 1 1 -0 -1 -1 -1 -1 -2 -2 -2 -3 -3 -4 -4 -5 -5 -6 -6 -7 -8 -8 -8 -9
7 6 5 7 7 6 6 5 4 3 3 2 2 2 1 0 -0 1 2 1 1 -0 -1 -2 -3 -3 -3 -3 -3 -3 -3 -4 -4 -4 -5 -5 -6 -6 -7 -7 -8 -8 -9 -9
5 6 6 5 5 4 4 3 2 1 1 1 1 0 -0 -1 -1 -1 -0 -0 -1 -2 -3 -4 -4 -4 -3 -3 -3 -3 -4 -4 -4 -5 -5 -6 -6 -7 -7 -7 -8 -9 -9 -10
5 5 5 4 4 3 3 2 1 1 0 -0 -0 -1 -2 -2 -2 -1 -1 -2 -2 -3 -3 -3 -4 -4 -4 -3 -4 -4 -4 -4 -5 -5 -6 -6 -7 -7 -7 -8 -9 -9 -10 -11
6 5 5 4 3 2 1 3 3 2 -0 -0 -2 -3 -2 -2 -3 -1 -1 -3 -3 -4 -3 -3 -4 -4 -4 -3 -4 -4 -4 -5 -5 -5 -6 -6 -7 -7 -8 -8 -9 -10 -10 -11
5 4 4 4 4 3 2 2 2 2 1 -1 -2 -2 -2 -2 -3 -3 -4 -4 -4 -4 -4 -4 -4 -4 -4 -4 -4 -4 -4 -5 -5 -5 -6 -7 -7 -7 -8 -9 -9 -10 -10 -11
3 3 3 3 3 3 1 2 1 0 1 -1 -0 -1 -2 -2 -2 -3 -3 -4 -3 -3 -3 -4 -4 -4 -4 -5 -5 -5 -5 -5 -5 -6 -6 -7 -7 -8 -8 -9 -9 -10 -10 -11
1 2 2 1 1 1 1 1 0 -1 0 -1 -2 -1 -1 -2 -2 -3 -4 -4 -2 -3 -3 -4 -4 -4 -5 -5 -5 -5 -5 -5 -5 -6 -6 -7 -7 -8 -8 -9 -9 -10 -10 -11
1 0 0 0 -0 -1 1 0 -0 -0 -1 -1 -1 -2 -2 -2 -3 -3 -3 -3 -2 -3 -3 -3 -4 -4 -5 -5 -5 -5 -5 -5 -5 -6 -6 -7 -7 -8 -8 -9 -9 -10 -10 -11
0 1 0 0 -1 -1 -1 -1 -0 -0 -1 -1 -1 -2 -1 -2 -2 -3 -4 -2 -2 -3 -3 -4 -4 -4 -5 -5 -5 -5 -5 -5 -5 -6 -6 -7 -7 -7 -8 -9 -9 -10 -10 -11
1 1 0 0 -1 -2 -3 -1 -1 -1 -1 -1 -2 -2 -2 -3 -2 -2 -3 -3 -3 -3 -3 -4 -4 -4 -4 -5 -5 -5 -5 -5 -5 -6 -6 -7 -7 -8 -8 -8 -9 -10 -10 -11
1 0 -1 -1 -1 -1 -1 -1 -2 -2 -1 -2 -1 -1 -2 -2 -2 -2 -2 -3 -4 -4 -4 -4 -4 -4 -5 -5 -5 -5 -5 -5 -5 -5 -6 -7 -7 -8 -8 -8 -9 -9 -10 -11
-0 -1 -1 -1 -2 -1 -1 -2 -2 -1 -1 -1 -1 -1 -2 -2 -2 -3 -2 -3 -4 -4 -4 -4 -5 -5 -5 -5 -5 -6 -5 -5 -5 -5 -6 -6 -7 -7 -8 -8 -9 -9 -10 -11
-1 -3 -3 -2 -2 -1 -1 -1 -1 -1 -1 -1 -1 -1 -2 -2 -2 -3 -3 -4 -4 -4 -4 -5 -5 -5 -5 -6 -6 -6 -6 -6 -6 -5 -5 -6 -6 -7 -7 -8 -9 -9 -10 -10
Height
868 863 860 856 857 857 864 859 861 842 847 835 831 833 832 830 828 823 819 818 816 814 811 807 804 801 798 796 794 790 788 784 781 782 780 779 776 773 773 772 772 771 770 768
871 870 869 866 854 852 852 850 851 845 843 829 828 829 831 827 824 821 818 819 817 814 810 806 801 799 797 794 791 787 784 782 783 781 780 777 777 774 772 772 771 769 768 765
883 878 874 868 842 845 841 840 838 841 829 827 828 831 827 821 820 818 820 817 815 811 808 804 803 800 794 791 790 788 786 786 784 783 780 780 777 774 772 770 769 768 766 763
895 874 886 836 833 832 837 835 830 833 832 829 828 826 823 819 818 822 823 821 812 806 807 805 802 798 794 790 788 788 787 784 781 779 777 775 773 772 770 769 767 765 763 761
874 867 867 836 828 827 830 834 824 827 825 825 822 819 815 817 818 819 820 818 812 811 807 802 798 794 794 789 789 787 785 784 781 779 776 774 772 770 769 767 766 764 761 759
885 876 870 839 827 827 828 841 824 821 822 822 825 825 816 824 825 823 816 812 809 805 803 799 795 794 792 791 789 787 786 784 783 779 775 772 771 769 768 765 763 762 759 756
881 874 861 833 830 828 843 832 820 819 822 822 826 824 825 824 817 811 809 806 804 801 798 796 793 790 788 787 788 785 786 785 781 777 774 772 770 768 766 763 761 759 755 753
885 875 865 828 829 833 824 819 818 818 820 820 822 823 821 815 809 806 804 803 802 799 796 793 790 788 789 788 787 785 784 782 779 776 772 770 768 766 764 761 758 755 751 747
851 850 829 824 821 820 819 819 818 817 820 822 823 821 815 813 808 803 801 800 798 797 794 792 788 786 784 781 781 782 781 779 777 774 771 769 766 764 761 759 756 752 749 745
841 827 824 819 815 817 819 820 821 821 823 820 818 813 810 808 803 799 797 796 794 792 790 789 786 784 781 780 780 778 778 776 774 772 769 767 764 761 759 756 753 750 747 743
835 822 818 817 818 821 823 822 823 825 822 816 814 811 808 805 801 798 795 792 790 789 786 784 783 780 777 777 776 775 774 773 772 770 767 763 761 759 757 755 752 749 746 743
820 815 815 814 818 820 822 824 821 818 817 815 813 809 805 802 800 796 793 788 786 784 782 781 779 776 774 773 773 772 771 770 769 767 764 762 759 756 756 754 751 748 745 742
812 812 814 815 818 821 821 821 821 821 817 812 808 807 804 800 796 792 789 788 784 780 779 777 775 773 771 771 770 769 768 768 767 765 762 760 757 755 751 750 749 746 743 740
811 811 816 820 822 822 823 822 820 817 814 811 808 803 802 799 794 791 786 785 782 779 776 774 773 771 770 768 767 767 766 765 764 762 761 759 757 754 752 749 745 743 741 739
814 815 820 821 822 822 821 819 817 815 812 808 806 804 800 796 794 788 783 781 779 777 775 772 770 770 769 767 766 766 765 763 762 761 759 757 755 753 751 748 746 743 740 737
819 819 821 823 823 821 819 817 816 812 808 804 802 799 797 794 790 785 781 779 776 774 772 771 770 769 768 767 766 764 763 762 760 759 758 756 755 752 750 748 746 743 741 738
823 825 824 823 820 815 813 811 809 806 803 800 797 794 792 789 785 781 779 777 774 772 771 770 770 769 767 766 765 763 762 760 759 758 757 755 753 751 749 747 745 743 741 739
823 822 821 819 816 813 809 806 802 800 798 796 793 790 787 784 779 775 773 772 772 770 769 768 768 768 767 765 763 761 760 759 758 756 755 754 752 751 749 747 745 743 741 739
822 820 819 816 814 810 807 804 800 795 791 790 788 785 782 778 775 772 770 769 769 768 768 767 767 767 765 763 761 759 758 757 756 755 754 752 751 750 748 747 745 743 741 739
820 817 816 813 811 806 803 799 794 789 785 783 781 778 775 772 770 767 767 766 766 767 766 766 766 765 764 762 761 759 757 756 755 754 752 751 749 748 747 746 744 743 741 740
819 815 811 809 805 801 797 793 789 784 779 777 775 772 770 767 765 764 763 763 762 763 764 764 764 763 762 761 759 757 756 754 754 752 751 749 748 747 745 744 743 742 741 739
814 811 806 803 800 796 790 787 783 778 774 771 768 766 764 761 760 760 759 759 759 761 762 761 761 760 759 758 757 755 754 753 752 751 749 747 746 745 744 743 742 741 740 739
808 805 802 799 796 792 785 781 776 773 769 765 762 759 757 756 756 756 755 755 756 758 759 759 759 758 757 756 755 754 752 751 750 748 747 745 743 742 742 741 740 739 738 737
803 800 797 794 791 787 781 774 771 767 762 758 754 753 752 751 752 752 753 753 755 756 756 756 756 756 754 754 753 752 750 749 748 746 744 743 741 740 739 739 738 737 736 736
798 796 792 789 786 782 777 771 766 761 757 753 750 748 747 748 749 750 750 752 753 753 754 754 753 753 752 751 750 749 747 746 745 743 742 740 739 738 737 736 735 735 734 734
794 791 787 785 782 777 771 767 763 757 753 749 745 744 743 745 747 748 749 750 751 751 751 751 751 750 750 749 748 746 744 743 741 740 739 738 736 735 734 733 733 733 732 732
789 787 783 779 775 771 768 764 758 752 749 746 742 741 741 742 744 746 747 748 748 749 749 749 748 748 747 747 746 744 742 740 738 736 735 734 733 732 731 730 730 730 730 730
Wind_Speed
6 9 8 11 11 8 8 8 6 15 8 12 11 8 6 7 7 10 10 8 8 7 13 17 19 21 21 17 22 22 15 12 10 8 8 8 11 11 14 18 20 20 20 17
4 4 5 7 11 11 9 7 11 14 15 9 4 3 5 9 11 11 10 8 8 8 13 14 18 20 21 24 22 15 10 8 10 12 13 11 12 13 12 15 16 14 13 15
5 4 9 6 4 4 3 6 5 6 9 2 3 8 10 12 8 10 6 6 8 9 16 18 23 24 23 19 15 10 11 16 14 15 15 13 14 14 11 11 11 14 16 17
3 5 2 6 3 7 7 9 9 7 6 4 7 7 8 8 8 6 8 10 10 13 17 23 27 25 14 6 11 10 8 7 9 12 13 11 10 10 11 11 14 16 16 14
2 3 6 12 6 2 2 7 3 3 3 6 9 9 7 6 4 3 6 16 20 17 22 26 25 7 3 4 3 1 9 13 11 10 11 13 14 13 12 13 15 14 11 16
2 4 5 8 3 1 2 6 3 1 12 13 6 9 6 11 11 12 18 16 15 20 26 22 14 9 11 10 8 7 11 10 10 12 12 13 12 12 13 14 11 12 18 19
3 4 8 10 6 1 3 5 4 3 8 5 5 1 3 4 8 14 15 15 16 19 17 16 14 13 13 8 5 8 11 11 12 13 12 11 13 13 14 12 13 18 19 20
2 3 8 3 1 3 6 3 5 4 3 1 5 3 5 9 11 15 14 14 17 16 15 16 15 11 10 8 10 13 10 11 12 13 13 12 11 13 15 12 18 20 22 25
8 7 5 4 7 7 5 6 5 2 4 6 3 4 11 9 11 15 14 15 15 13 15 18 12 8 10 15 13 9 8 10 12 13 11 11 11 15 16 15 19 22 20 20
2 6 8 12 13 7 5 4 7 7 3 2 7 10 11 11 10 10 15 15 14 13 16 15 13 12 15 12 8 8 8 9 11 11 12 12 14 14 16 18 20 18 20 20
6 13 14 12 3 3 5 5 5 3 9 9 7 10 7 8 9 15 17 18 16 14 15 17 19 17 16 13 11 11 9 9 10 12 14 16 15 14 16 14 16 17 20 21
13 13 9 9 3 4 6 2 6 7 8 11 9 8 9 9 16 18 20 20 15 14 17 21 17 18 16 12 12 13 12 10 11 13 15 13 15 18 16 14 16 16 16 17
12 8 5 4 5 6 3 6 10 10 14 10 15 9 12 12 15 20 21 16 13 14 13 12 12 13 10 10 10 11 12 11 10 12 13 15 18 19 19 19 15 17 17 17
4 2 2 2 2 0 6 12 14 13 14 11 16 22 17 14 21 20 19 17 15 13 11 10 11 10 10 10 11 9 9 8 9 11 12 14 16 15 15 17 17 21 19 18
6 7 6 5 6 6 10 10 7 7 10 14 16 16 17 16 17 21 24 17 15 12 9 9 9 9 10 10 10 9 7 9 9 8 12 14 14 15 14 15 15 18 19 21
6 7 8 7 5 7 5 7 6 8 8 12 15 17 17 18 22 23 22 15 11 12 7 6 8 10 11 10 8 7 8 8 8 9 12 13 13 14 15 15 15 16 16 18
6 5 3 5 7 7 6 8 9 10 13 13 18 16 15 16 21 19 17 13 11 8 3 6 6 9 9 7 9 9 10 9 7 10 12 12 14 13 15 14 13 14 14 14
3 5 7 8 8 8 8 10 16 17 14 18 21 20 16 15 17 21 15 9 7 6 5 4 5 8 9 10 10 11 10 8 7 10 12 12 13 13 13 13 12 12 13 13
8 10 15 17 19 17 16 19 21 24 24 19 17 17 18 20 23 23 12 7 7 5 3 5 7 8 9 11 11 11 8 6 7 11 12 11 11 12 12 12 11 11 11 12
14 18 20 20 23 22 19 26 27 25 28 24 21 18 19 21 20 14 9 10 8 7 4 6 8 9 9 10 10 10 9 8 8 9 11 11 11 11 11 11 10 9 11 10
15 18 20 21 22 28 28 26 24 24 29 26 18 19 19 21 17 9 9 9 9 6 6 7 9 9 10 11 13 12 10 8 10 11 12 12 11 11 10 10 9 9 9 10
17 16 20 23 22 25 30 28 28 29 27 22 21 18 19 19 14 11 12 14 10 7 8 10 10 10 11 10 14 8 8 9 10 10 13 13 11 11 10 10 10 8 9 9
19 20 21 22 22 24 31 30 29 26 27 26 22 19 17 19 14 12 6 6 8 8 9 9 8 10 10 8 10 9 11 12 12 11 14 14 11 12 10 10 9 8 9 9
21 23 23 26 23 22 16 26 27 28 28 26 24 22 19 14 14 14 11 7 6 6 8 8 8 10 11 9 10 10 10 12 13 13 14 12 10 10 11 9 9 8 8 7
23 23 23 20 16 16 21 25 24 22 22 23 18 17 14 14 13 8 8 7 5 8 8 7 9 9 10 10 11 13 14 13 12 12 12 12 11 10 8 9 8 8 7 7
20 18 20 21 21 23 25 23 18 21 18 17 20 18 12 13 11 10 7 6 6 6 7 9 8 8 10 10 11 12 13 13 14 13 12 12 12 12 11 10 10 8 7 7
20 19 19 19 18 21 20 20 21 20 19 17 16 16 11 13 13 14 11 7 5 8 9 10 9 9 10 10 11 13 14 14 13 13 14 14 12 12 12 12 11 10 8 8
Wind_Direction
242 259 277 278 276 258 206 227 225 268 254 267 274 264 258 273 283 293 298 294 300 305 307 306 315 328 322 324 332 335 342 4 15 20 36 12 354 339 327 318 316 310 311 310
274 312 304 276 256 250 263 246 238 257 268 262 267 300 297 288 285 281 288 311 312 314 315 319 317 321 330 335 337 335 347 353 344 342 339 333 347 359 335 312 302 304 309 318
278 335 323 328 260 184 223 234 207 254 276 291 329 318 308 302 280 307 327 343 343 323 314 328 334 334 326 326 330 351 45 37 35 16 3 345 334 316 317 317 315 316 318 320
260 348 347 246 272 225 219 265 270 266 284 276 255 278 273 278 309 359 1 331 300 307 334 327 326 327 324 15 84 75 51 11 330 329 319 324 340 338 329 325 323 321 320 323
236 224 293 302 309 50 178 262 273 218 252 294 311 332 331 64 86 26 350 295 292 327 328 326 330 338 95 93 104 286 300 323 330 329 336 336 336 335 332 326 322 321 325 326
143 251 252 238 255 18 132 292 228 198 336 304 330 305 336 19 2 329 304 296 316 325 326 330 336 294 288 304 295 319 335 335 329 330 337 338 339 336 330 328 328 328 324 328
215 248 273 249 267 21 79 271 207 240 290 288 271 30 32 307 295 292 286 302 315 328 324 320 319 306 273 275 315 336 326 319 329 336 342 340 335 337 335 330 327 327 328 328
154 208 280 214 228 149 252 259 279 272 286 269 101 42 302 276 274 291 293 306 320 318 316 321 320 309 311 323 327 302 309 327 338 338 337 338 340 342 338 324 329 332 332 330
186 218 224 234 244 263 289 267 284 176 74 88 53 296 273 288 289 298 287 299 313 305 311 319 313 283 261 270 261 275 317 333 337 338 339 338 331 338 337 330 330 332 332 324
324 242 266 292 302 296 9 56 62 85 147 199 262 260 262 279 289 291 293 297 308 303 307 306 308 289 279 279 265 282 303 322 334 334 333 328 326 330 334 332 329 330 329 325
251 278 280 274 337 54 81 90 61 329 259 259 278 285 280 293 300 300 298 306 305 282 293 291 298 304 293 276 269 269 288 312 329 331 325 321 324 331 332 331 332 328 330 331
270 267 276 297 116 75 80 57 241 257 288 298 284 285 304 307 314 311 311 312 298 293 304 303 302 308 304 280 272 273 284 306 331 337 343 343 335 329 336 331 331 331 331 335
269 301 317 120 119 144 189 248 275 289 292 293 308 310 314 307 314 318 317 302 303 311 314 315 319 322 313 298 299 287 283 306 327 341 345 345 339 334 330 336 340 342 342 343
284 287 133 97 106 109 327 322 324 318 325 325 328 327 323 318 326 324 317 311 307 306 311 315 327 326 321 313 311 304 306 316 322 335 340 340 340 338 331 330 334 342 348 350
49 67 106 97 38 5 333 322 325 314 312 319 322 320 322 324 308 306 314 307 303 302 307 329 343 349 349 339 325 319 322 335 324 323 332 338 340 337 334 334 336 338 341 349
100 80 61 49 342 308 300 309 297 295 297 299 304 309 309 306 306 305 305 294 295 301 315 357 348 342 328 329 326 323 333 341 330 324 336 341 341 338 337 337 334 338 344 350
68 46 355 320 288 272 260 275 261 270 288 291 293 308 297 298 307 309 308 299 295 289 338 330 338 351 350 336 335 334 342 347 336 345 344 335 335 336 336 335 331 336 346 351
144 213 256 282 299 296 289 285 296 296 284 297 302 305 294 286 282 291 297 301 299 264 283 300 326 329 324 322 320 320 309 316 333 346 341 333 335 336 335 334 332 336 342 349
346 328 326 320 313 301 296 292 298 300 297 287 290 291 295 292 292 290 293 298 274 265 257 335 322 318 321 335 334 324 306 304 319 338 336 332 334 337 335 333 330 331 338 342
321 323 323 320 321 316 302 306 307 301 301 291 278 274 284 292 291 278 273 253 257 260 300 308 313 317 322 324 328 325 315 296 317 334 331 329 329 330 331 331 328 325 334 336
310 313 310 308 305 313 312 313 309 297 304 302 266 275 281 288 285 258 243 241 259 229 283 295 305 307 317 319 322 311 305 286 310 317 326 323 318 319 323 328 327 320 325 331
296 293 300 310 307 305 315 317 314 309 305 296 288 277 281 277 269 252 253 247 271 228 281 300 296 302 310 317 330 305 299 304 305 317 324 323 309 308 314 319 320 316 317 318
294 301 305 306 305 306 312 314 317 316 305 297 286 268 269 280 255 233 242 243 231 241 285 291 296 305 304 302 332 319 303 308 309 310 322 319 308 298 304 311 313 312 314 314
302 307 306 313 315 316 304 311 311 314 311 311 305 286 282 255 245 243 241 242 231 264 274 281 293 298 298 296 304 314 319 313 314 309 320 318 316 309 295 300 304 305 307 305
305 307 307 309 308 304 299 303 307 304 307 311 309 303 275 235 243 266 214 214 250 271 274 269 287 299 309 302 303 311 304 291 310 314 309 318 310 313 297 289 293 295 295 293
303 301 300 300 295 289 295 300 296 302 300 295 299 304 259 236 235 215 228 250 259 276 268 278 281 295 308 313 322 328 321 322 301 294 305 304 305 302 297 289 283 282 287 285
311 313 312 309 301 300 312 313 308 300 299 296 289 306 250 239 233 221 222 232 253 282 287 277 276 296 303 312 318 325 327 326 321 311 294 298 299 296 299 291 284 276 274 272